This is the latest recevied weather packets stored in our database for station/object KD2VWU. If no packets are shown the sender has not sent any weather packets the latest 10 day(s).
| Time | Temp. | Humidity | Pressure | Rain* | Wind** | Luminosity | Snow |
|---|---|---|---|---|---|---|---|
| 1777840756 | 13.89° C | 35% | 1006.8 hPa | 0 mm | - | - | - |
| 1777840454 | 13.89° C | 37% | 1006.7 hPa | 0 mm | - | - | - |
| 1777840150 | 13.89° C | 37% | 1006.6 hPa | 0 mm | - | - | - |
| 1777839849 | 13.89° C | 37% | 1006.6 hPa | 0 mm | - | - | - |
| 1777839547 | 13.33° C | 35% | 1006.5 hPa | 0 mm | - | - | - |
| 1777839243 | 13.89° C | 38% | 1006.5 hPa | 0 mm | - | - | - |
| 1777838941 | 13.33° C | 35% | 1006.9 hPa | 0 mm | - | - | - |
| 1777838636 | 13.89° C | 37% | 1006.8 hPa | 0 mm | - | - | - |
| 1777838334 | 13.89° C | 40% | 1006.7 hPa | 0 mm | - | - | - |
| 1777838030 | 12.78° C | 38% | 1007 hPa | 0 mm | - | - | - |
| 1777837728 | 13.89° C | 39% | 1006.9 hPa | 0 mm | - | - | - |
| 1777837423 | 13.89° C | 39% | 1006.8 hPa | 0 mm | - | - | - |
| 1777837120 | 13.89° C | 37% | 1007.2 hPa | 0 mm | - | - | - |
| 1777836816 | 13.89° C | 39% | 1007.1 hPa | 0 mm | - | - | - |
| 1777836512 | 13.89° C | 38% | 1007 hPa | 0 mm | - | - | - |
| 1777836208 | 13.89° C | 38% | 1007.2 hPa | 0 mm | - | - | - |
| 1777835904 | 13.33° C | 45% | 1007.4 hPa | 0 mm | - | - | - |
| 1777835601 | 13.89° C | 38% | 1007.2 hPa | 0 mm | - | - | - |
| 1777835298 | 13.33° C | 39% | 1007.1 hPa | 0 mm | - | - | - |
| 1777834995 | 13.89° C | 44% | 1007.1 hPa | 0 mm | - | - | - |
| 1777834692 | 13.89° C | 43% | 1007 hPa | 0 mm | - | - | - |
| 1777834387 | 12.78° C | 42% | 1007.3 hPa | 0 mm | - | - | - |
| 1777834082 | 12.78° C | 44% | 1007.3 hPa | 0 mm | - | - | - |
| 1777833779 | 12.78° C | 41% | 1007.4 hPa | 0 mm | - | - | - |
| 1777833474 | 12.78° C | 44% | 1007.3 hPa | 0 mm | - | - | - |
* Rain latest hour (hover to see other rain measurements)
** Current wind speed in m/s (hover to see current wind gust speed)